Location: Bagnara
(41.0500°N, 14.7833°E)
Time: 14:55:32
(UTC+00:00)

Cosmos 2221 - Pass Details

Date: 20 June 2021
Orbit: 592 x 616 km, 82.5° (Epoch: 04 August)

Event Time Altitude Azimuth Distance (km) Brightness Sun altitude
Rises 00:21:36 0° 351° (N) 2,857 7.0 -22.9°
Reaches altitude 10° 00:23:50 10° 351° (N) 1,946 5.9 -22.8°
Maximum altitude 00:28:08 86° 264° (W) 603 2.3 -22.5°
Enters shadow 00:28:26 77° 192° (SSW) 616 2.3 -22.5°
